Погода в Густомесове

Россия / Костромская область     57°30′25″N   41°07′46″E
темп.,
°C
ветер,
м/с
пор.,
м/с
влажн.,
%
обл.,
%
осадки,
мм/ч
давл.,
гПа
погр.,
м
8 августа, пн
пн800:00+17с3698100 0.2 1019242
03:00+14ссз3497100 0.4 1021110
06:00+15ссв3594100 0.1 1021196
09:00+15ссв349693 0.9 1022191
12:00+18ссв448154 0.0 1022477
15:00+23с325841 0.1 10211095
18:00+23с435838 0.0 10211055
21:00+16с388758 0.0 1022163
9 августа, вт
вт900:00+14ссв339390 0.0 102260
03:00+13ссв3594100 0.0 102290
06:00+14с1286100 0.2 1022104
09:00+18ссв3573100 0.4 1021426
12:00+17з1186100 2.5 1021142
15:00+16с2498100 11.9 1021207
18:00+16ссз1291100 1.8 1021212
21:00+15с22965 1.8 102129
10 августа, ср
ср1000:00+14с37965 0.0 1021166
03:00+12с359599 0.0 102186
06:00+12с36925 0.0 1021160
09:00+17с467137 0.0 1021519
12:00+22с44485 0.0 10211701
15:00+21ссз4548100 0.0 1020633
18:00+18ссз4865100 0.3 1021256
21:00+14с34830 0.3 102253
11 августа, чт
чт1100:00+12ссз35910 0.0 102383
03:00+11ссз34945 0.0 102362
06:00+11зсз24890 0.0 1025117
09:00+17ссз34625 0.0 1025524
12:00+22сз33435 0.0 10241693
15:00+23сз34341 0.0 10231952
18:00+22зсз24415 0.0 1023267
21:00+15ссз116297 0.0 102311
12 августа, пт
пт1200:00+14юз336232 0.0 102330
03:00+14зюз3863100 0.0 1023160
06:00+14зюз4106899 0.0 1023225
09:00+20з575164 0.0 1023488
12:00+25з67385 0.0 10221527
15:00+26з67369 0.0 10211784
18:00+25з474342 0.0 1021807
21:00+18з33665 0.0 102235